Torna al catalogo

RIDU-Sat 1

AttivoScienzaSSO
NORAD 64531·PAYLOAD·🇳🇿 New Zealand

Lanciato Jun 23, 2025 da Vandenberg Space Force Base

Loading…

Prossimi Passaggi (prossime 24 ore)

TLE

AggiornatoSource: Space-Track

Epoca: Sep 14, 2026, 13:47 UTC

1 64531U 25135D   26257.57470176  .00009238  00000-0  34214-3 0  9993
2 64531  97.4797  13.8969 0003775 195.0402 165.0726 15.27869681 68568

Traccia RIDU-Sat 1 in tempo reale con AllMySat

Download on the App Store